User: anonymous
Location: Caltech
(34.1382°N, 118.1253°W)
Time: 23:25:23
(UTC-07:00)
Language:

Meteor 1-11 Rocket - Orbit

View from above orbital plane
View from above orbital plane
View from above satellite
View from above satellite

Ground track
Ground track

The orbit data is extracted from the following two-line orbital elements,

1 05918U 72022B   14274.76710329  .00000150  00000-0  83122-4 0  2662
2 05918 081.2393 202.9550 0057972 226.4540 194.6277 14.05720120178988
Epoch (UTC): 01 October 2014 18:24:37
Eccentricity: 0.0057972
inclination: 81.2393°
perigee height: 832 km
apogee height: 916 km
right ascension of ascending node: 202.9550°
argument of perigee: 226.4540°
revolutions per day: 14.05720120
mean anomaly at epoch: 194.6277°
orbit number at epoch: 17898

The dashed part of the orbit path shows where the satellite is in the earth's shadow,  

DLR